Weather History for El Paso, TX

Change the Weather History Date:

Saturday, November 23, 2013

  Actual Average Record
Temperature  
Mean Temperature 35 °F 50 °F  
Max Temperature 39 °F 63 °F 78 °F (1966)
Min Temperature 31 °F 37 °F 18 °F (1957)
Degree Days  
Heating Degree Days 30 15  
Month to date heating degree days 168 244  
Since 1 July heating degree days 226 327  
Cooling Degree Days 0 0  
Month to date cooling degree days 1 0  
Year to date cooling degree days 2695 2328  
Moisture  
Dew Point 26 °F    
Average Humidity 69    
Maximum Humidity 78    
Minimum Humidity 59    
Precipitation  
Precipitation 0.02 in 0.02 in 0.71 in (1940)
Month to date precipitation 0.02 0.37  
Year to date precipitation 9.17 8.81  
Snow  
Snow 0.00 in - - ()
Month to date snowfall 0.0  
Since 1 July snowfall T  
Since 1 September snowfall 0.0  
Snow Depth 0.00 in    
Sea Level Pressure  
Sea Level Pressure 30.33 in    
Wind  
Wind Speed 12 mph (East)    
Max Wind Speed 20 mph    
Max Gust Speed 25 mph    
Visibility 9 miles    
Events Rain    
T = Trace of Precipitation, MM = Missing Value Source: NWS Daily Summary

Daily Weather History Graph

Daily Weather History Graph

Search for Another Location

Airport:

Trip Planner

Search our weather history database for the weather conditions in past years. The results will help you decide how hot, cold, wet, or windy it might be!

Date:

Astronomy

Nov. 23, 2013 Rise Set
Actual Time 6:41 AM MST 5:02 PM MST
Civil Twilight 6:14 AM MST 5:28 PM MST
Nautical Twilight 5:45 AM MST 5:58 PM MST
Astronomical Twilight 5:15 AM MST 6:27 PM MST
Moon 10:25 PM MST (11/23) 11:06 AM MST (11/23)
Length of Visible Light 11h 14m
Length of Day
10h 21m
Waning Gibbous, 69% of the Moon is Illuminated
Nov 23
Waning Gibbous
Nov 25
Last Quarter
Dec 2
New
Dec 9
First Quarter
Dec 17
Full

Hourly Weather History & Observations

Time (MST) Temp. Windchill Dew Point Humidity Pressure Visibility Wind Dir Wind Speed Gust Speed Precip Events Conditions
12:51 AM 35.1 °F 26.9 °F 23.0 °F 61% 30.31 in 10.0 mi East 11.5 mph - N/A   Overcast
1:51 AM 35.1 °F 26.9 °F 24.1 °F 64% 30.31 in 10.0 mi East 11.5 mph - N/A   Overcast
2:51 AM 35.1 °F 27.9 °F 24.1 °F 64% 30.32 in 10.0 mi East 9.2 mph - N/A   Overcast
3:51 AM 35.1 °F 26.9 °F 26.1 °F 70% 30.33 in 10.0 mi East 11.5 mph - N/A   Overcast
4:51 AM 35.1 °F 27.9 °F 26.1 °F 70% 30.34 in 10.0 mi East 9.2 mph - N/A   Overcast
5:51 AM 35.1 °F 27.9 °F 26.1 °F 70% 30.35 in 10.0 mi East 9.2 mph - N/A   Overcast
6:51 AM 35.1 °F 25.9 °F 26.1 °F 70% 30.37 in 10.0 mi East 13.8 mph - N/A   Overcast
7:51 AM 36.0 °F 27.5 °F 26.1 °F 67% 30.38 in 10.0 mi East 12.7 mph 23.0 mph N/A   Overcast
8:51 AM 36.0 °F 27.1 °F 26.1 °F 67% 30.38 in 10.0 mi ENE 13.8 mph - N/A   Overcast
9:51 AM 37.0 °F 29.8 °F 27.0 °F 67% 30.40 in 10.0 mi ENE 10.4 mph - N/A   Overcast
10:51 AM 37.0 °F 28.9 °F 28.9 °F 73% 30.38 in 10.0 mi East 12.7 mph - 0.00 in   Overcast
11:51 AM 37.9 °F 29.2 °F 28.9 °F 70% 30.35 in 10.0 mi East 15.0 mph - 0.01 in   Overcast
12:51 PM 39.0 °F 30.6 °F 27.0 °F 62% 30.32 in 10.0 mi East 15.0 mph 21.9 mph N/A   Overcast
1:51 PM 39.0 °F 30.6 °F 26.1 °F 60% 30.29 in 10.0 mi East 15.0 mph - N/A   Overcast
2:51 PM 39.0 °F 31.0 °F 26.1 °F 60% 30.28 in 10.0 mi East 13.8 mph - N/A   Overcast
3:51 PM 37.9 °F 30.5 °F 28.0 °F 68% 30.29 in 10.0 mi ESE 11.5 mph - N/A   Overcast
4:06 PM 37.4 °F 28.5 °F 28.4 °F 70% 30.30 in 10.0 mi ESE 15.0 mph 18.4 mph N/A   Overcast
4:51 PM 37.0 °F 28.1 °F 28.0 °F 70% 30.29 in 10.0 mi East 15.0 mph - N/A   Overcast
5:51 PM 37.0 °F 29.3 °F 27.0 °F 67% 30.30 in 10.0 mi East 11.5 mph - N/A   Overcast
6:51 PM 36.0 °F 28.0 °F 26.1 °F 67% 30.31 in 10.0 mi East 11.5 mph - N/A   Overcast
7:51 PM 36.0 °F 27.5 °F 25.0 °F 64% 30.31 in 10.0 mi East 12.7 mph - N/A   Overcast
8:51 PM 35.1 °F 26.4 °F 25.0 °F 67% 30.33 in 10.0 mi East 12.7 mph - N/A   Overcast
9:51 PM 33.1 °F 23.9 °F 26.1 °F 75% 30.34 in 10.0 mi East 12.7 mph 19.6 mph N/A   Overcast
10:51 PM 32.0 °F 23.0 °F 27.0 °F 82% 30.34 in 4.0 mi East 11.5 mph - 0.00 in   Light Drizzle
11:51 PM 30.9 °F 22.8 °F 28.0 °F 89% 30.34 in 2.0 mi ENE 9.2 mph - 0.01 in   Light Freezing Rain